,,PressureMeas_1m,,PRMeasQMR101_1,,RHStat155_1m_1,,SRMeasQMS101R_1m,,TAStat155_1m_1,,GenWind_1,,GenWind_1,
2019-04-29, 00:00:07,VALID,918.406,VALID,0.0,VALID,99.194,VALID,0.012,VALID,20.967,VALID,56.0,VALID,0.0,
2019-04-29, 00:01:07,VALID,918.384,VALID,0.0,VALID,99.244,VALID,-0.017,VALID,21.018,INVALID,360.0,VALID,0.0,
2019-04-29, 00:02:07,VALID,918.369,VALID,0.0,VALID,99.282,VALID,-0.007,VALID,21.085,INVALID,360.0,VALID,0.0,
2019-04-29, 00:03:07,VALID,918.36,VALID,0.0,VALID,99.285,VALID,-0.003,VALID,21.111,INVALID,360.0,VALID,0.0,
2019-04-29, 00:04:07,VALID,918.35,VALID,0.0,VALID,99.268,VALID,-0.01,VALID,21.073,INVALID,360.0,VALID,0.0,
2019-04-29, 00:05:07,VALID,918.347,VALID,0.0,VALID,99.284,VALID,-0.001,VALID,21.086,INVALID,360.0,VALID,0.0,
2019-04-29, 00:06:07,VALID,918.349,VALID,0.0,VALID,99.28,VALID,-0.007,VALID,21.089,INVALID,360.0,VALID,0.0,
2019-04-29, 00:07:07,VALID,918.324,VALID,0.0,VALID,99.29,VALID,-0.018,VALID,21.099,INVALID,360.0,VALID,0.0,
2019-04-29, 00:08:07,VALID,918.282,VALID,0.0,VALID,99.304,VALID,-0.008,VALID,21.103,INVALID,360.0,VALID,0.0,
2019-04-29, 00:09:07,VALID,918.28,VALID,0.0,VALID,99.317,VALID,0.007,VALID,21.097,INVALID,360.0,VALID,0.0,
2019-04-29, 00:10:07,VALID,918.263,VALID,0.0,VALID,99.303,VALID,0.009,VALID,21.069,INVALID,360.0,VALID,0.0,
2019-04-29, 00:11:07,VALID,918.252,VALID,0.0,VALID,99.297,VALID,-0.005,VALID,21.051,INVALID,360.0,VALID,0.0,
2019-04-29, 00:12:07,VALID,918.246,VALID,0.0,VALID,99.294,VALID,-0.002,VALID,21.021,INVALID,360.0,VALID,0.0,
2019-04-29, 00:13:07,VALID,918.217,VALID,0.0,VALID,99.285,VALID,-0.007,VALID,20.994,INVALID,360.0,VALID,0.0,
2019-04-29, 00:14:07,VALID,918.185,VALID,0.0,VALID,99.305,VALID,0.001,VALID,20.965,VALID,53.0,VALID,0.0,
2019-04-29, 00:15:07,VALID,918.164,VALID,0.0,VALID,99.293,VALID,0.007,VALID,20.933,VALID,53.0,VALID,0.0,
2019-04-29, 00:16:07,VALID,918.134,VALID,0.0,VALID,99.298,VALID,0.001,VALID,20.912,VALID,53.0,VALID,0.0,
2019-04-29, 00:17:07,VALID,918.125,VALID,0.0,VALID,99.317,VALID,-0.016,VALID,20.908,VALID,54.0,VALID,0.0,
2019-04-29, 00:18:07,VALID,918.114,VALID,0.0,VALID,99.306,VALID,0.011,VALID,20.899,INVALID,360.0,VALID,0.0,
2019-04-29, 00:19:07,VALID,918.103,VALID,0.0,VALID,99.316,VALID,0.008,VALID,20.84,INVALID,360.0,VALID,0.0,
2019-04-29, 00:20:07,VALID,918.105,VALID,0.0,VALID,99.302,VALID,-0.001,VALID,20.815,INVALID,360.0,VALID,0.0,
2019-04-29, 00:21:07,VALID,918.096,VALID,0.0,VALID,99.335,VALID,0.019,VALID,20.821,INVALID,360.0,VALID,0.0,
2019-04-29, 00:22:07,VALID,918.095,VALID,0.0,VALID,99.365,VALID,0.003,VALID,20.881,INVALID,360.0,VALID,0.0,
2019-04-29, 00:23:07,VALID,918.103,VALID,0.0,VALID,99.348,VALID,0.017,VALID,20.923,INVALID,360.0,VALID,0.0,
2019-04-29, 00:24:07,VALID,918.098,VALID,0.0,VALID,99.362,VALID,0.009,VALID,20.928,INVALID,360.0,VALID,0.0,
2019-04-29, 00:25:07,VALID,918.107,VALID,0.0,VALID,99.354,VALID,0.019,VALID,20.933,INVALID,360.0,VALID,0.0,
2019-04-29, 00:26:07,VALID,918.083,VALID,0.0,VALID,99.346,VALID,0.019,VALID,20.926,INVALID,360.0,VALID,0.0,
2019-04-29, 00:27:07,VALID,918.086,VALID,0.0,VALID,99.326,VALID,0.017,VALID,20.906,INVALID,360.0,VALID,0.0,
2019-04-29, 00:28:07,VALID,918.065,VALID,0.0,VALID,99.301,VALID,-0.007,VALID,20.897,INVALID,360.0,VALID,0.0,
2019-04-29, 00:29:07,VALID,918.057,VALID,0.0,VALID,99.281,VALID,0.013,VALID,20.852,INVALID,360.0,VALID,0.0,
2019-04-29, 00:30:07,VALID,918.038,VALID,0.0,VALID,99.212,VALID,-0.008,VALID,20.815,INVALID,360.0,VALID,0.0,
2019-04-29, 00:31:07,VALID,918.042,VALID,0.0,VALID,99.153,VALID,0.007,VALID,20.768,INVALID,360.0,VALID,0.0,
2019-04-29, 00:32:07,VALID,918.036,VALID,0.0,VALID,99.147,VALID,0.012,VALID,20.785,INVALID,360.0,VALID,0.0,
2019-04-29, 00:33:07,VALID,918.044,VALID,0.0,VALID,99.147,VALID,-0.004,VALID,20.826,INVALID,360.0,VALID,0.0,
2019-04-29, 00:34:07,VALID,918.015,VALID,0.0,VALID,99.099,VALID,0.005,VALID,20.841,INVALID,360.0,VALID,0.0,
2019-04-29, 00:35:07,VALID,918.0,VALID,0.0,VALID,99.035,VALID,0.028,VALID,20.849,INVALID,360.0,VALID,0.0,
2019-04-29, 00:36:07,VALID,917.95,VALID,0.0,VALID,99.055,VALID,0.028,VALID,20.89,INVALID,360.0,VALID,0.0,
2019-04-29, 00:37:07,VALID,917.953,VALID,0.0,VALID,98.964,VALID,0.01,VALID,20.846,INVALID,360.0,VALID,0.0,
2019-04-29, 00:38:07,VALID,917.931,VALID,0.0,VALID,98.953,VALID,0.001,VALID,20.836,INVALID,360.0,VALID,0.0,
2019-04-29, 00:39:07,VALID,917.938,VALID,0.0,VALID,98.941,VALID,0.0,VALID,20.848,INVALID,360.0,VALID,0.0,
2019-04-29, 00:40:07,VALID,917.945,VALID,0.0,VALID,98.985,VALID,0.003,VALID,20.883,INVALID,360.0,VALID,0.0,
2019-04-29, 00:41:07,VALID,917.958,VALID,0.0,VALID,98.987,VALID,0.005,VALID,20.896,INVALID,360.0,VALID,0.0,
2019-04-29, 00:42:07,VALID,917.955,VALID,0.0,VALID,98.993,VALID,-0.009,VALID,20.927,INVALID,360.0,VALID,0.0,
2019-04-29, 00:43:07,VALID,917.953,VALID,0.0,VALID,99.006,VALID,0.019,VALID,20.948,INVALID,360.0,VALID,0.0,
2019-04-29, 00:44:07,VALID,917.946,VALID,0.0,VALID,98.983,VALID,0.007,VALID,20.962,INVALID,360.0,VALID,0.0,
2019-04-29, 00:45:07,VALID,917.949,VALID,0.0,VALID,98.965,VALID,0.004,VALID,20.969,INVALID,360.0,VALID,0.0,
2019-04-29, 00:46:07,VALID,917.973,VALID,0.0,VALID,98.928,VALID,-0.002,VALID,20.994,INVALID,360.0,VALID,0.0,
2019-04-29, 00:47:07,VALID,917.957,VALID,0.0,VALID,98.861,VALID,-0.001,VALID,21.013,INVALID,360.0,VALID,0.0,
2019-04-29, 00:48:07,VALID,917.978,VALID,0.0,VALID,98.78,VALID,-0.001,VALID,21.02,INVALID,360.0,VALID,0.0,
2019-04-29, 00:49:07,VALID,917.955,VALID,0.0,VALID,98.666,VALID,0.003,VALID,21.002,INVALID,360.0,VALID,0.0,
2019-04-29, 00:50:07,VALID,917.953,VALID,0.0,VALID,98.56,VALID,0.004,VALID,20.983,INVALID,360.0,VALID,0.0,
2019-04-29, 00:51:07,VALID,917.947,VALID,0.0,VALID,98.485,VALID,0.005,VALID,20.966,INVALID,360.0,VALID,0.0,
2019-04-29, 00:52:07,VALID,917.92,VALID,0.0,VALID,98.476,VALID,0.014,VALID,20.954,INVALID,360.0,VALID,0.0,
2019-04-29, 00:53:07,VALID,917.929,VALID,0.0,VALID,98.504,VALID,0.001,VALID,20.95,INVALID,360.0,VALID,0.0,
2019-04-29, 00:54:07,VALID,917.909,VALID,0.0,VALID,98.508,VALID,0.002,VALID,20.926,INVALID,360.0,VALID,0.0,
2019-04-29, 00:55:07,VALID,917.889,VALID,0.0,VALID,98.607,VALID,0.0,VALID,20.921,INVALID,360.0,VALID,0.0,
2019-04-29, 00:56:07,VALID,917.869,VALID,0.0,VALID,98.709,VALID,-0.015,VALID,20.924,INVALID,360.0,VALID,0.0,
2019-04-29, 00:57:07,VALID,917.843,VALID,0.0,VALID,98.757,VALID,-0.012,VALID,20.911,INVALID,360.0,VALID,0.0,
2019-04-29, 00:58:07,VALID,917.847,VALID,0.0,VALID,98.77,VALID,-0.016,VALID,20.861,INVALID,360.0,VALID,0.0,
2019-04-29, 00:59:07,VALID,917.806,VALID,0.0,VALID,98.761,VALID,-0.012,VALID,20.821,INVALID,360.0,VALID,0.0,
2019-04-29, 01:00:07,VALID,917.818,VALID,0.0,VALID,98.814,VALID,0.001,VALID,20.815,INVALID,360.0,VALID,0.0,
2019-04-29, 01:01:07,VALID,917.81,VALID,0.0,VALID,98.857,VALID,-0.009,VALID,20.771,INVALID,360.0,VALID,0.0,
2019-04-29, 01:02:07,VALID,917.771,VALID,0.0,VALID,98.74,VALID,-0.007,VALID,20.622,INVALID,360.0,VALID,0.0,
2019-04-29, 01:03:07,VALID,917.77,VALID,0.0,VALID,98.675,VALID,0.0,VALID,20.548,INVALID,360.0,VALID,0.0,
2019-04-29, 01:04:07,VALID,917.734,VALID,0.0,VALID,98.765,VALID,-0.005,VALID,20.577,INVALID,360.0,VALID,0.0,
2019-04-29, 01:05:07,VALID,917.718,VALID,0.0,VALID,98.844,VALID,-0.005,VALID,20.612,INVALID,360.0,VALID,0.0,
2019-04-29, 01:06:07,VALID,917.68,VALID,0.0,VALID,98.92,VALID,-0.015,VALID,20.638,INVALID,360.0,VALID,0.0,
2019-04-29, 01:07:07,VALID,917.655,VALID,0.0,VALID,98.953,VALID,-0.006,VALID,20.627,INVALID,360.0,VALID,0.0,
2019-04-29, 01:08:07,VALID,917.631,VALID,0.0,VALID,98.903,VALID,0.013,VALID,20.573,INVALID,360.0,VALID,0.0,
2019-04-29, 01:09:07,VALID,917.594,VALID,0.0,VALID,98.958,VALID,-0.003,VALID,20.585,INVALID,360.0,VALID,0.0,
2019-04-29, 01:10:07,VALID,917.572,VALID,0.0,VALID,98.985,VALID,-0.012,VALID,20.602,INVALID,360.0,VALID,0.0,
2019-04-29, 01:11:07,VALID,917.547,VALID,0.0,VALID,99.041,VALID,-0.013,VALID,20.643,INVALID,360.0,VALID,0.0,
2019-04-29, 01:12:07,VALID,917.516,VALID,0.0,VALID,99.07,VALID,-0.013,VALID,20.661,INVALID,360.0,VALID,0.0,
2019-04-29, 01:13:07,VALID,917.512,VALID,0.0,VALID,99.062,VALID,-0.014,VALID,20.638,INVALID,360.0,VALID,0.0,
2019-04-29, 01:14:07,VALID,917.502,VALID,0.0,VALID,99.056,VALID,-0.011,VALID,20.591,INVALID,360.0,VALID,0.0,
2019-04-29, 01:15:07,VALID,917.492,VALID,0.0,VALID,99.054,VALID,0.003,VALID,20.549,INVALID,360.0,VALID,0.0,
2019-04-29, 01:16:07,VALID,917.472,VALID,0.0,VALID,99.083,VALID,0.015,VALID,20.565,INVALID,360.0,VALID,0.0,
2019-04-29, 01:17:07,VALID,917.454,VALID,0.0,VALID,99.1,VALID,0.018,VALID,20.549,INVALID,360.0,VALID,0.0,
2019-04-29, 01:18:07,VALID,917.419,VALID,0.0,VALID,99.121,VALID,0.006,VALID,20.547,INVALID,360.0,VALID,0.0,
2019-04-29, 01:19:07,VALID,917.407,VALID,0.0,VALID,99.185,VALID,0.008,VALID,20.582,INVALID,360.0,VALID,0.0,
2019-04-29, 01:20:07,VALID,917.389,VALID,0.0,VALID,99.208,VALID,0.003,VALID,20.587,INVALID,360.0,VALID,0.0,
2019-04-29, 01:21:07,VALID,917.351,VALID,0.0,VALID,99.217,VALID,-0.003,VALID,20.601,INVALID,360.0,VALID,0.0,
2019-04-29, 01:22:07,VALID,917.317,VALID,0.0,VALID,99.248,VALID,0.006,VALID,20.622,INVALID,360.0,VALID,0.0,
2019-04-29, 01:23:07,VALID,917.313,VALID,0.0,VALID,99.271,VALID,0.008,VALID,20.634,INVALID,360.0,VALID,0.0,
2019-04-29, 01:24:07,VALID,917.286,VALID,0.0,VALID,99.281,VALID,0.001,VALID,20.656,INVALID,360.0,VALID,0.0,
2019-04-29, 01:25:07,VALID,917.276,VALID,0.0,VALID,99.317,VALID,0.001,VALID,20.672,INVALID,360.0,VALID,0.0,
2019-04-29, 01:26:07,VALID,917.265,VALID,0.0,VALID,99.318,VALID,-0.005,VALID,20.663,INVALID,360.0,VALID,0.0,
2019-04-29, 01:27:07,VALID,917.235,VALID,0.0,VALID,99.305,VALID,0.006,VALID,20.657,INVALID,360.0,VALID,0.0,
2019-04-29, 01:28:07,VALID,917.223,VALID,0.0,VALID,99.314,VALID,-0.011,VALID,20.646,INVALID,360.0,VALID,0.0,
2019-04-29, 01:29:07,VALID,917.196,VALID,0.0,VALID,99.316,VALID,0.013,VALID,20.635,INVALID,360.0,VALID,0.0,
2019-04-29, 01:30:07,VALID,917.183,VALID,0.0,VALID,99.338,VALID,-0.013,VALID,20.63,INVALID,360.0,VALID,0.0,
2019-04-29, 01:31:07,VALID,917.171,VALID,0.0,VALID,99.343,VALID,0.001,VALID,20.622,INVALID,360.0,VALID,0.0,
2019-04-29, 01:32:07,VALID,917.155,VALID,0.0,VALID,99.371,VALID,-0.019,VALID,20.628,INVALID,360.0,VALID,0.0,
2019-04-29, 01:33:07,VALID,917.143,VALID,0.0,VALID,99.357,VALID,-0.011,VALID,20.634,INVALID,360.0,VALID,0.0,
2019-04-29, 01:34:07,VALID,917.133,VALID,0.0,VALID,99.347,VALID,-0.002,VALID,20.604,INVALID,360.0,VALID,0.0,
2019-04-29, 01:35:07,VALID,917.113,VALID,0.0,VALID,99.352,VALID,-0.007,VALID,20.598,INVALID,360.0,VALID,0.0,
2019-04-29, 01:36:07,VALID,917.094,VALID,0.0,VALID,99.354,VALID,-0.014,VALID,20.581,INVALID,360.0,VALID,0.0,
2019-04-29, 01:37:07,VALID,917.092,VALID,0.0,VALID,99.342,VALID,-0.029,VALID,20.548,INVALID,360.0,VALID,0.0,
2019-04-29, 01:38:07,VALID,917.075,VALID,0.0,VALID,99.363,VALID,-0.024,VALID,20.546,INVALID,360.0,VALID,0.0,
2019-04-29, 01:39:07,VALID,917.048,VALID,0.0,VALID,99.355,VALID,-0.024,VALID,20.55,INVALID,360.0,VALID,0.0,
2019-04-29, 01:40:07,VALID,917.027,VALID,0.0,VALID,99.381,VALID,-0.01,VALID,20.545,INVALID,360.0,VALID,0.0,
2019-04-29, 01:41:07,VALID,916.993,VALID,0.0,VALID,99.378,VALID,-0.01,VALID,20.535,INVALID,360.0,VALID,0.0,
2019-04-29, 01:42:07,VALID,916.974,VALID,0.0,VALID,99.389,VALID,-0.017,VALID,20.53,INVALID,360.0,VALID,0.0,
2019-04-29, 01:43:07,VALID,916.958,VALID,0.0,VALID,99.384,VALID,-0.024,VALID,20.508,INVALID,360.0,VALID,0.0,
2019-04-29, 01:44:06,VALID,916.91,VALID,0.0,VALID,99.384,VALID,-0.011,VALID,20.517,INVALID,360.0,VALID,0.0,
2019-04-29, 01:45:06,VALID,916.913,VALID,0.0,VALID,99.392,VALID,-0.011,VALID,20.511,INVALID,360.0,VALID,0.0,
2019-04-29, 01:46:06,VALID,916.9,VALID,0.0,VALID,99.375,VALID,-0.027,VALID,20.496,INVALID,360.0,VALID,0.0,
2019-04-29, 01:47:06,VALID,916.902,VALID,0.0,VALID,99.375,VALID,-0.022,VALID,20.489,INVALID,360.0,VALID,0.0,
2019-04-29, 01:48:06,VALID,916.901,VALID,0.0,VALID,99.367,VALID,-0.006,VALID,20.48,INVALID,360.0,VALID,0.0,
2019-04-29, 01:49:06,VALID,916.895,VALID,0.0,VALID,99.363,VALID,-0.015,VALID,20.491,INVALID,360.0,VALID,0.0,
2019-04-29, 01:50:06,VALID,916.896,VALID,0.0,VALID,99.348,VALID,-0.011,VALID,20.483,INVALID,360.0,VALID,0.0,
2019-04-29, 01:51:06,VALID,916.885,VALID,0.0,VALID,99.324,VALID,-0.008,VALID,20.46,INVALID,360.0,VALID,0.0,
2019-04-29, 01:52:06,VALID,916.879,VALID,0.0,VALID,99.269,VALID,-0.021,VALID,20.448,INVALID,360.0,VALID,0.0,
2019-04-29, 01:53:06,VALID,916.896,VALID,0.0,VALID,99.207,VALID,-0.001,VALID,20.39,INVALID,360.0,VALID,0.0,
2019-04-29, 01:54:06,VALID,916.892,VALID,0.0,VALID,99.145,VALID,0.001,VALID,20.34,INVALID,360.0,VALID,0.0,
2019-04-29, 01:55:06,VALID,916.896,VALID,0.0,VALID,99.071,VALID,-0.021,VALID,20.312,INVALID,360.0,VALID,0.0,
2019-04-29, 01:56:06,VALID,916.896,VALID,0.0,VALID,99.004,VALID,-0.025,VALID,20.289,INVALID,360.0,VALID,0.0,
2019-04-29, 01:57:06,VALID,916.898,VALID,0.0,VALID,98.943,VALID,-0.016,VALID,20.274,INVALID,360.0,VALID,0.0,
2019-04-29, 01:58:06,VALID,916.891,VALID,0.0,VALID,98.857,VALID,-0.014,VALID,20.245,INVALID,360.0,VALID,0.0,
2019-04-29, 01:59:06,VALID,916.893,VALID,0.0,VALID,98.782,VALID,-0.023,VALID,20.231,INVALID,360.0,VALID,0.0,
2019-04-29, 02:00:06,VALID,916.885,VALID,0.0,VALID,98.769,VALID,-0.003,VALID,20.258,INVALID,360.0,VALID,0.0,
2019-04-29, 02:01:06,VALID,916.881,VALID,0.0,VALID,98.803,VALID,-0.013,VALID,20.306,INVALID,360.0,VALID,0.0,
2019-04-29, 02:02:06,VALID,916.867,VALID,0.0,VALID,98.809,VALID,-0.005,VALID,20.33,INVALID,360.0,VALID,0.0,
2019-04-29, 02:03:06,VALID,916.858,VALID,0.0,VALID,98.834,VALID,-0.016,VALID,20.36,INVALID,360.0,VALID,0.0,
2019-04-29, 02:04:06,VALID,916.858,VALID,0.0,VALID,98.823,VALID,-0.01,VALID,20.381,INVALID,360.0,VALID,0.0,
2019-04-29, 02:05:06,VALID,916.85,VALID,0.0,VALID,98.781,VALID,-0.002,VALID,20.389,INVALID,360.0,VALID,0.0,
2019-04-29, 02:06:06,VALID,916.856,VALID,0.0,VALID,98.77,VALID,0.015,VALID,20.394,INVALID,360.0,VALID,0.0,
2019-04-29, 02:07:06,VALID,916.834,VALID,0.0,VALID,98.739,VALID,0.024,VALID,20.392,INVALID,360.0,VALID,0.0,
2019-04-29, 02:08:06,VALID,916.807,VALID,0.0,VALID,98.716,VALID,0.027,VALID,20.369,INVALID,360.0,VALID,0.0,
2019-04-29, 02:09:06,VALID,916.794,VALID,0.0,VALID,98.755,VALID,0.018,VALID,20.369,INVALID,360.0,VALID,0.0,
2019-04-29, 02:10:06,VALID,916.781,VALID,0.0,VALID,98.731,VALID,0.016,VALID,20.369,INVALID,360.0,VALID,0.0,
2019-04-29, 02:11:06,VALID,916.771,VALID,0.0,VALID,98.735,VALID,-0.002,VALID,20.364,INVALID,360.0,VALID,0.0,
2019-04-29, 02:12:06,VALID,916.773,VALID,0.0,VALID,98.741,VALID,0.013,VALID,20.366,INVALID,360.0,VALID,0.0,
2019-04-29, 02:13:06,VALID,916.752,VALID,0.0,VALID,98.78,VALID,0.026,VALID,20.359,INVALID,360.0,VALID,0.0,
2019-04-29, 02:14:06,VALID,916.733,VALID,0.0,VALID,98.779,VALID,0.028,VALID,20.308,INVALID,360.0,VALID,0.0,
2019-04-29, 02:15:06,VALID,916.705,VALID,0.0,VALID,98.815,VALID,-0.01,VALID,20.294,INVALID,360.0,VALID,0.0,
2019-04-29, 02:16:06,VALID,916.679,VALID,0.0,VALID,98.837,VALID,-0.027,VALID,20.277,INVALID,360.0,VALID,0.0,
2019-04-29, 02:17:06,VALID,916.677,VALID,0.0,VALID,98.911,VALID,-0.014,VALID,20.293,INVALID,360.0,VALID,0.0,
2019-04-29, 02:18:06,VALID,916.665,VALID,0.0,VALID,98.894,VALID,-0.03,VALID,20.259,INVALID,360.0,VALID,0.0,
2019-04-29, 02:19:06,VALID,916.638,VALID,0.0,VALID,98.869,VALID,-0.023,VALID,20.239,INVALID,360.0,VALID,0.0,
2019-04-29, 02:20:06,VALID,916.625,VALID,0.0,VALID,98.782,VALID,-0.022,VALID,20.238,INVALID,360.0,VALID,0.0,
2019-04-29, 02:21:06,VALID,916.615,VALID,0.0,VALID,98.665,VALID,-0.017,VALID,20.232,INVALID,360.0,VALID,0.0,
2019-04-29, 02:22:06,VALID,916.6,VALID,0.0,VALID,98.499,VALID,-0.039,VALID,20.219,INVALID,360.0,VALID,0.0,
2019-04-29, 02:23:06,VALID,916.577,VALID,0.0,VALID,98.306,VALID,-0.033,VALID,20.202,INVALID,360.0,VALID,0.0,
2019-04-29, 02:24:06,VALID,916.567,VALID,0.0,VALID,98.177,VALID,-0.029,VALID,20.207,INVALID,360.0,VALID,0.0,
2019-04-29, 02:25:06,VALID,916.572,VALID,0.0,VALID,98.008,VALID,-0.02,VALID,20.191,INVALID,360.0,VALID,0.0,
2019-04-29, 02:26:06,VALID,916.539,VALID,0.0,VALID,97.986,VALID,-0.033,VALID,20.191,INVALID,360.0,VALID,0.0,
2019-04-29, 02:27:06,VALID,916.527,VALID,0.0,VALID,97.936,VALID,-0.031,VALID,20.176,INVALID,360.0,VALID,0.0,
2019-04-29, 02:28:06,VALID,916.5,VALID,0.0,VALID,97.874,VALID,-0.031,VALID,20.14,INVALID,360.0,VALID,0.0,
2019-04-29, 02:29:06,VALID,916.47,VALID,0.0,VALID,97.888,VALID,-0.046,VALID,20.131,INVALID,360.0,VALID,0.0,
2019-04-29, 02:30:06,VALID,916.454,VALID,0.0,VALID,97.859,VALID,-0.008,VALID,20.101,INVALID,360.0,VALID,0.0,
2019-04-29, 02:31:06,VALID,916.437,VALID,0.0,VALID,97.903,VALID,-0.004,VALID,20.088,INVALID,360.0,VALID,0.0,
2019-04-29, 02:32:06,VALID,916.437,VALID,0.0,VALID,98.032,VALID,0.028,VALID,20.097,INVALID,360.0,VALID,0.0,
2019-04-29, 02:33:06,VALID,916.433,VALID,0.0,VALID,98.185,VALID,0.017,VALID,20.118,INVALID,360.0,VALID,0.0,
2019-04-29, 02:34:06,VALID,916.412,VALID,0.0,VALID,98.249,VALID,0.016,VALID,20.117,INVALID,360.0,VALID,0.0,
2019-04-29, 02:35:06,VALID,916.406,VALID,0.0,VALID,98.299,VALID,0.011,VALID,20.119,INVALID,360.0,VALID,0.0,
2019-04-29, 02:36:06,VALID,916.383,VALID,0.0,VALID,98.347,VALID,0.009,VALID,20.121,INVALID,360.0,VALID,0.0,
2019-04-29, 02:37:06,VALID,916.385,VALID,0.0,VALID,98.325,VALID,0.003,VALID,20.101,INVALID,360.0,VALID,0.0,
2019-04-29, 02:38:06,VALID,916.365,VALID,0.0,VALID,98.329,VALID,0.005,VALID,20.059,INVALID,360.0,VALID,0.0,
2019-04-29, 02:39:06,VALID,916.342,VALID,0.0,VALID,98.456,VALID,0.015,VALID,20.077,INVALID,360.0,VALID,0.0,
2019-04-29, 02:40:06,VALID,916.335,VALID,0.0,VALID,98.529,VALID,0.013,VALID,20.083,INVALID,360.0,VALID,0.0,
2019-04-29, 02:41:06,VALID,916.322,VALID,0.0,VALID,98.648,VALID,0.016,VALID,20.086,INVALID,360.0,VALID,0.0,
2019-04-29, 02:42:06,VALID,916.329,VALID,0.0,VALID,98.636,VALID,0.002,VALID,20.057,INVALID,360.0,VALID,0.0,
2019-04-29, 02:43:06,VALID,916.319,VALID,0.0,VALID,98.688,VALID,0.004,VALID,20.059,INVALID,360.0,VALID,0.0,
2019-04-29, 02:44:06,VALID,916.309,VALID,0.0,VALID,98.694,VALID,0.015,VALID,20.043,INVALID,360.0,VALID,0.0,
2019-04-29, 02:45:06,VALID,916.295,VALID,0.0,VALID,98.655,VALID,0.021,VALID,20.009,INVALID,360.0,VALID,0.0,
2019-04-29, 02:46:06,VALID,916.297,VALID,0.0,VALID,98.625,VALID,0.019,VALID,20.0,INVALID,360.0,VALID,0.0,
2019-04-29, 02:47:06,VALID,916.281,VALID,0.0,VALID,98.613,VALID,0.013,VALID,20.018,INVALID,360.0,VALID,0.0,
2019-04-29, 02:48:06,VALID,916.282,VALID,0.0,VALID,98.629,VALID,0.009,VALID,20.034,INVALID,360.0,VALID,0.0,
2019-04-29, 02:49:06,VALID,916.274,VALID,0.0,VALID,98.654,VALID,-0.012,VALID,20.044,INVALID,360.0,VALID,0.0,
2019-04-29, 02:50:06,VALID,916.276,VALID,0.0,VALID,98.721,VALID,-0.002,VALID,20.071,INVALID,360.0,VALID,0.0,
2019-04-29, 02:51:06,VALID,916.269,VALID,0.0,VALID,98.72,VALID,0.011,VALID,20.076,INVALID,360.0,VALID,0.0,
2019-04-29, 02:52:06,VALID,916.25,VALID,0.0,VALID,98.72,VALID,0.008,VALID,20.097,INVALID,360.0,VALID,0.0,
2019-04-29, 02:53:06,VALID,916.227,VALID,0.0,VALID,98.715,VALID,0.0,VALID,20.093,INVALID,360.0,VALID,0.0,
2019-04-29, 02:54:06,VALID,916.201,VALID,0.0,VALID,98.647,VALID,0.018,VALID,20.043,INVALID,360.0,VALID,0.0,
2019-04-29, 02:55:06,VALID,916.179,VALID,0.0,VALID,98.598,VALID,0.002,VALID,20.018,INVALID,360.0,VALID,0.0,
2019-04-29, 02:56:06,VALID,916.168,VALID,0.0,VALID,98.599,VALID,0.005,VALID,20.008,INVALID,360.0,VALID,0.0,
2019-04-29, 02:57:06,VALID,916.138,VALID,0.0,VALID,98.59,VALID,0.005,VALID,19.98,INVALID,360.0,VALID,0.0,
2019-04-29, 02:58:06,VALID,916.054,VALID,0.0,VALID,98.553,VALID,0.0,VALID,19.954,INVALID,360.0,VALID,0.0,
2019-04-29, 02:59:06,VALID,916.025,VALID,0.0,VALID,98.556,VALID,0.007,VALID,19.963,INVALID,360.0,VALID,0.0,
2019-04-29, 03:00:06,VALID,915.978,VALID,0.0,VALID,98.465,VALID,0.01,VALID,19.955,INVALID,360.0,VALID,0.0,
2019-04-29, 03:01:06,VALID,915.93,VALID,0.0,VALID,98.336,VALID,0.012,VALID,19.962,INVALID,360.0,VALID,0.0,
2019-04-29, 03:02:06,VALID,915.913,VALID,0.0,VALID,98.212,VALID,0.012,VALID,19.989,INVALID,360.0,VALID,0.0,
2019-04-29, 03:03:06,VALID,915.902,VALID,0.0,VALID,97.972,VALID,-0.009,VALID,19.988,INVALID,360.0,VALID,0.0,
2019-04-29, 03:04:06,VALID,915.912,VALID,0.0,VALID,97.747,VALID,-0.007,VALID,19.97,INVALID,360.0,VALID,0.0,
2019-04-29, 03:05:06,VALID,915.92,VALID,0.0,VALID,97.601,VALID,-0.003,VALID,19.935,INVALID,360.0,VALID,0.0,
2019-04-29, 03:06:06,VALID,915.913,VALID,0.0,VALID,97.545,VALID,0.003,VALID,19.907,INVALID,360.0,VALID,0.0,
2019-04-29, 03:07:06,VALID,915.909,VALID,0.0,VALID,97.731,VALID,-0.011,VALID,19.933,INVALID,360.0,VALID,0.0,
2019-04-29, 03:08:06,VALID,915.886,VALID,0.0,VALID,97.756,VALID,0.004,VALID,19.951,INVALID,360.0,VALID,0.0,
2019-04-29, 03:09:06,VALID,915.882,VALID,0.0,VALID,97.588,VALID,0.006,VALID,19.938,INVALID,360.0,VALID,0.0,
2019-04-29, 03:10:06,VALID,915.867,VALID,0.0,VALID,97.509,VALID,0.024,VALID,19.949,INVALID,360.0,VALID,0.0,
2019-04-29, 03:11:06,VALID,915.839,VALID,0.0,VALID,97.349,VALID,0.0,VALID,19.995,INVALID,360.0,VALID,0.0,
2019-04-29, 03:12:06,VALID,915.805,VALID,0.0,VALID,97.177,VALID,-0.001,VALID,20.031,INVALID,360.0,VALID,0.0,
2019-04-29, 03:13:06,VALID,915.78,VALID,0.0,VALID,97.115,VALID,0.004,VALID,20.017,INVALID,360.0,VALID,0.0,
2019-04-29, 03:14:06,VALID,915.781,VALID,0.0,VALID,97.249,VALID,0.015,VALID,20.009,INVALID,360.0,VALID,0.0,
2019-04-29, 03:15:06,VALID,915.774,VALID,0.0,VALID,97.366,VALID,-0.009,VALID,20.013,INVALID,360.0,VALID,0.0,
2019-04-29, 03:16:06,VALID,915.767,VALID,0.0,VALID,97.345,VALID,-0.02,VALID,20.013,INVALID,360.0,VALID,0.0,
2019-04-29, 03:17:06,VALID,915.782,VALID,0.0,VALID,97.325,VALID,-0.024,VALID,19.993,INVALID,360.0,VALID,0.0,
2019-04-29, 03:18:06,VALID,915.762,VALID,0.0,VALID,97.486,VALID,-0.015,VALID,19.955,INVALID,360.0,VALID,0.0,
2019-04-29, 03:19:06,VALID,915.779,VALID,0.0,VALID,97.483,VALID,0.011,VALID,19.894,INVALID,360.0,VALID,0.0,
2019-04-29, 03:20:06,VALID,915.789,VALID,0.0,VALID,97.669,VALID,0.005,VALID,19.861,INVALID,360.0,VALID,0.0,
2019-04-29, 03:21:06,VALID,915.772,VALID,0.0,VALID,97.793,VALID,-0.005,VALID,19.832,INVALID,360.0,VALID,0.0,
2019-04-29, 03:22:06,VALID,915.773,VALID,0.0,VALID,97.969,VALID,-0.009,VALID,19.822,INVALID,360.0,VALID,0.0,
2019-04-29, 03:23:06,VALID,915.77,VALID,0.0,VALID,98.045,VALID,0.002,VALID,19.804,INVALID,360.0,VALID,0.0,
2019-04-29, 03:24:06,VALID,915.748,VALID,0.0,VALID,98.162,VALID,0.006,VALID,19.831,INVALID,360.0,VALID,0.0,
2019-04-29, 03:25:06,VALID,915.744,VALID,0.0,VALID,98.141,VALID,-0.002,VALID,19.836,INVALID,360.0,VALID,0.0,
2019-04-29, 03:26:06,VALID,915.737,VALID,0.0,VALID,98.114,VALID,0.006,VALID,19.847,INVALID,360.0,VALID,0.0,
2019-04-29, 03:27:06,VALID,915.724,VALID,0.0,VALID,98.106,VALID,-0.01,VALID,19.831,INVALID,360.0,VALID,0.0,
2019-04-29, 03:28:06,VALID,915.699,VALID,0.0,VALID,98.168,VALID,-0.016,VALID,19.819,INVALID,360.0,VALID,0.0,
2019-04-29, 03:29:06,VALID,915.685,VALID,0.0,VALID,98.247,VALID,-0.004,VALID,19.813,INVALID,360.0,VALID,0.0,
2019-04-29, 03:30:06,VALID,915.694,VALID,0.0,VALID,98.175,VALID,-0.002,VALID,19.789,INVALID,360.0,VALID,0.0,
2019-04-29, 03:31:06,VALID,915.729,VALID,0.0,VALID,98.074,VALID,0.011,VALID,19.776,INVALID,360.0,VALID,0.0,
2019-04-29, 03:32:06,VALID,915.745,VALID,0.0,VALID,97.909,VALID,0.006,VALID,19.805,INVALID,360.0,VALID,0.0,
2019-04-29, 03:33:06,VALID,915.774,VALID,0.0,VALID,97.675,VALID,0.003,VALID,19.837,INVALID,360.0,VALID,0.0,
2019-04-29, 03:34:06,VALID,915.776,VALID,0.0,VALID,97.337,VALID,-0.008,VALID,19.873,INVALID,360.0,VALID,0.0,
2019-04-29, 03:35:06,VALID,915.818,VALID,0.0,VALID,96.954,VALID,-0.018,VALID,19.906,INVALID,360.0,VALID,0.0,
2019-04-29, 03:36:06,VALID,915.824,VALID,0.0,VALID,96.791,VALID,-0.008,VALID,19.934,INVALID,360.0,VALID,0.0,
2019-04-29, 03:37:06,VALID,915.827,VALID,0.0,VALID,96.793,VALID,0.009,VALID,19.943,INVALID,360.0,VALID,0.0,
2019-04-29, 03:38:06,VALID,915.817,VALID,0.0,VALID,97.001,VALID,0.008,VALID,19.937,INVALID,360.0,VALID,0.0,